[[{"header":{"parameterUnit":"m.s-1","parameterCategory":1,"la1":30.2991,"la2":30.254,"lo1":-89.0895,"lo2":-89.0444,"dy":0.0017,"dx":0.0017,"nx":28,"ny":28,"refTime":"2025-05-24T21:00:00:Z","depth":0,"parameterNumber":2,"parameterNumberName":"U-component_of_WINDS"},"data":[0,0,0,0,0,0,0,0,0,0,0,0,0,0,0,0,0,0,0,0,0,0,0,0,0,0,0,0,0,0,0,0,0,0,0,0,0,0,0,0,0,0,0,0,0,0,0,0,0,0,0,0,0,0,0,0,0,0,-0.653,-0.653,0,-0.6472,-0.6471,-0.6471,-0.6439,-0.6439,-0.6438,-0.6438,-0.638,-0.6379,-0.6378,0,0,0,0,0,0,0,0,0,0,0,0,0,-0.6616,-0.6615,-0.653,-0.653,-0.6529,-0.6472,-0.6471,-0.6471,-0.6439,-0.6439,-0.6438,-0.6438,-0.6381,-0.6379,-0.6377,0,0,0,0,0,0,0,0,0,0,0,0,0,-0.6571,-0.6614,-0.653,-0.6506,-0.6503,-0.6472,-0.6471,-0.647,-0.6439,-0.6439,-0.6438,-0.6438,-0.6381,-0.6379,-0.6377,-0.6366,0,0,-0.637,-0.637,0,0,0,0,0,0,0,0,-0.6573,-0.6568,-0.651,-0.6508,-0.6505,-0.6462,-0.648,-0.6436,-0.6439,-0.6463,-0.6438,-0.6438,-0.6408,-0.6404,-0.6393,-0.6364,-0.6361,-0.637,-0.6369,-0.6368,-0.6367,0,0,0,0,0,0,0,-0.6577,-0.657,-0.6507,-0.651,-0.6506,-0.6499,-0.6492,-0.6472,-0.6437,-0.6461,-0.6459,-0.6452,-0.6406,-0.6395,-0.6391,-0.636,-0.637,-0.6368,-0.6367,-0.6366,-0.632,-0.632,0,0,0,0,0,0,-0.6583,-0.6573,-0.6509,-0.6506,-0.6539,-0.6497,-0.649,-0.6476,-0.6437,-0.6431,-0.6452,-0.6451,-0.6399,-0.6394,-0.6389,-0.6374,-0.6368,-0.6366,-0.6365,-0.632,-0.632,-0.632,0,0,0,0,0,0,-0.6585,-0.6578,-0.6511,-0.6538,-0.6529,-0.6496,-0.6481,-0.6475,-0.6464,-0.6431,-0.6424,-0.6447,-0.6399,-0.6392,-0.6372,-0.6372,-0.6365,-0.6363,-0.632,-0.632,-0.632,-0.6344,0,0,0,0,0,0,-0.6588,-0.6579,-0.6574,-0.6539,-0.6528,-0.6495,-0.6481,-0.6474,-0.646,-0.6457,-0.6424,-0.6418,-0.6398,-0.6376,-0.637,-0.6369,-0.6361,-0.632,-0.632,-0.632,-0.6343,-0.6345,-0.6346,0,0,0,0,0,-0.6591,-0.6583,-0.6574,-0.6566,-0.6521,-0.6495,-0.6489,-0.6465,-0.646,-0.6455,-0.6434,-0.6419,-0.6373,-0.6374,-0.6367,-0.6365,-0.632,-0.632,-0.632,-0.6342,-0.6345,-0.6346,0,0,0,0,0,0,-0.662,-0.6578,-0.6567,-0.6547,-0.6525,-0.649,-0.6483,-0.6468,-0.6447,-0.6446,-0.6418,-0.6411,-0.6394,-0.6377,-0.6379,-0.6353,-0.6345,-0.6344,-0.6364,-0.6366,-0.6368,-0.6372,-0.636,0,0,0,0,0,-0.6624,-0.6605,-0.657,-0.6556,-0.6546,-0.6516,-0.6504,-0.6488,-0.6463,-0.6454,-0.6431,-0.6409,-0.6389,-0.6377,-0.6357,-0.6341,-0.6333,-0.6336,-0.6338,-0.6339,-0.6339,-0.6329,-0.633,-0.6321,-0.6321,-0.6321,0,0,-0.6632,-0.6607,-0.6597,-0.6562,-0.6542,-0.6524,-0.6508,-0.649,-0.6477,-0.6451,-0.6431,-0.6414,-0.6387,-0.6369,-0.636,-0.6355,-0.634,-0.634,-0.6341,-0.6339,-0.633,-0.6331,-0.6332,-0.6321,-0.6321,-0.6321,0,0,-0.6638,-0.6617,-0.6603,-0.6584,-0.6555,-0.6535,-0.6532,-0.6499,-0.6486,-0.6465,-0.6445,-0.643,-0.6396,-0.6378,-0.6364,-0.6364,-0.635,-0.6359,-0.6367,-0.6359,-0.6359,-0.636,-0.636,-0.636,-0.6358,-0.6358,-0.6358,0,-0.6652,-0.6624,-0.6598,-0.6581,-0.6566,-0.6542,-0.6528,-0.6511,-0.6477,-0.6468,-0.6462,-0.642,-0.64,-0.6378,-0.6378,-0.6368,-0.6364,-0.6362,-0.6361,-0.6361,-0.6362,-0.6361,-0.6361,-0.6359,-0.6359,-0.6359,-0.6359,0,-0.6642,-0.6623,-0.6616,-0.6583,-0.6567,-0.6552,-0.6525,-0.6512,-0.6498,-0.6479,-0.6458,-0.6434,-0.6409,-0.6402,-0.6388,-0.6378,-0.6376,-0.6366,-0.6357,-0.6364,-0.6363,-0.6363,-0.6361,-0.636,-0.636,-0.636,0,0,-0.6664,-0.6618,-0.6615,-0.66,-0.6566,-0.6551,-0.6535,-0.651,-0.65,-0.6478,-0.6464,-0.6437,-0.6428,-0.6412,-0.6396,-0.6388,-0.639,-0.6379,-0.6378,-0.6382,-0.6378,-0.6385,-0.6385,-0.638,-0.638,-0.638,-0.638,0,-0.6665,-0.6634,-0.6611,-0.6589,-0.6572,-0.6549,-0.6535,-0.6513,-0.6495,-0.6478,-0.6459,-0.644,-0.643,-0.642,-0.6412,-0.6391,-0.6388,-0.6391,-0.6368,-0.6367,-0.6375,-0.6384,-0.6392,-0.6393,-0.6379,-0.6379,-0.6379,0,-0.6662,-0.664,-0.6616,-0.6584,-0.6576,-0.6564,-0.6539,-0.6523,-0.6498,-0.6486,-0.6469,-0.6452,-0.6435,-0.6428,-0.6404,-0.6407,-0.6396,-0.6384,-0.6384,-0.6381,-0.6373,-0.6381,-0.6392,-0.6392,-0.6378,-0.6378,-0.6379,0,-0.668,-0.6645,-0.6626,-0.6614,-0.6576,-0.6568,-0.6553,-0.6527,-0.6514,-0.6493,-0.6484,-0.6461,-0.6448,-0.6432,-0.6409,-0.6406,-0.6388,-0.6379,-0.6378,-0.6378,-0.6374,-0.6375,-0.6384,-0.6368,-0.6368,-0.6368,-0.6368,0,-0.6684,-0.667,-0.6634,-0.6622,-0.6607,-0.6581,-0.6566,-0.6549,-0.6527,-0.6512,-0.6491,-0.6478,-0.6449,-0.6432,-0.6415,-0.6398,-0.6392,-0.6382,-0.6378,-0.6384,-0.6385,-0.6377,-0.6376,-0.6368,-0.6368,-0.6368,-0.6368,0,-0.6702,-0.6677,-0.6655,-0.6621,-0.6612,-0.6602,-0.6573,-0.6562,-0.6543,-0.6525,-0.6519,-0.649,-0.6469,-0.6445,-0.6417,-0.6406,-0.639,-0.6384,-0.6398,-0.6396,-0.6396,-0.6396,-0.6399,-0.6398,-0.6383,-0.6383,-0.6384,0,-0.6705,-0.6694,-0.6659,-0.6647,-0.6632,-0.6613,-0.6599,-0.6573,-0.656,-0.6531,-0.6523,-0.6501,-0.6481,-0.645,-0.6427,-0.6405,-0.6398,-0.64,-0.6395,-0.6401,-0.6398,-0.6399,-0.6398,-0.6402,-0.6402,-0.6403,-0.6403,0,-0.6715,-0.6703,-0.6683,-0.6659,-0.6642,-0.6622,-0.6602,-0.6593,-0.6564,-0.655,-0.6528,-0.6513,-0.6484,-0.6462,-0.6438,-0.6422,-0.6408,-0.6405,-0.6403,-0.6409,-0.6419,-0.6414,-0.6403,-0.6405,-0.6405,-0.6404,-0.6404,-0.6404,-0.6726,-0.6715,-0.6688,-0.6667,-0.6648,-0.6629,-0.6617,-0.6596,-0.6578,-0.6552,-0.6538,-0.6517,-0.6493,-0.6458,-0.6443,-0.6427,-0.6422,-0.642,-0.6419,-0.6419,-0.6421,-0.6421,-0.6422,-0.6422,-0.6422,-0.6422,-0.6422,0,-0.6734,-0.6716,-0.6696,-0.6667,-0.6651,-0.6638,-0.6614,-0.6602,-0.6583,-0.6561,-0.6543,-0.6518,-0.6497,-0.6473,-0.645,-0.6442,-0.6435,-0.6437,-0.6437,-0.6434,-0.6427,-0.643,-0.6443,-0.6443,-0.6443,-0.6443,-0.6443,-0.6443,-0.6736,-0.6717,-0.6702,-0.6674,-0.6656,-0.6635,-0.6623,-0.6605,-0.6588,-0.6561,-0.6543,-0.6527,-0.6504,-0.648,-0.6461,-0.6454,-0.6447,-0.6451,-0.6442,-0.6436,-0.6434,-0.6433,-0.6436,-0.645,-0.645,-0.6451,-0.6451,-0.6451]},{"header":{"parameterUnit":"m.s-1","parameterCategory":1,"la1":30.2991,"la2":30.254,"lo1":-89.0895,"lo2":-89.0444,"dy":0.0017,"dx":0.0017,"nx":28,"ny":28,"refTime":"2025-05-24T21:00:00:Z","depth":0,"parameterNumber":3,"parameterNumberName":"V-component_of_WINDS"},"data":[0,0,0,0,0,0,0,0,0,0,0,0,0,0,0,0,0,0,0,0,0,0,0,0,0,0,0,0,0,0,0,0,0,0,0,0,0,0,0,0,0,0,0,0,0,0,0,0,0,0,0,0,0,0,0,0,0,0,4.637,4.637,0,4.6353,4.6352,4.6352,4.6262,4.626,4.6258,4.6256,4.6239,4.6241,4.6242,0,0,0,0,0,0,0,0,0,0,0,0,0,4.6326,4.6328,4.637,4.637,4.637,4.6353,4.6352,4.6352,4.6263,4.626,4.6257,4.6255,4.6239,4.624,4.6242,0,0,0,0,0,0,0,0,0,0,0,0,0,4.6331,4.6328,4.637,4.6323,4.6318,4.6353,4.6352,4.6352,4.6263,4.626,4.6257,4.6254,4.6238,4.624,4.6242,4.6321,0,0,4.625,4.6251,0,0,0,0,0,0,0,0,4.6331,4.6333,4.633,4.6326,4.6321,4.6306,4.6331,4.6342,4.6264,4.6284,4.6256,4.6252,4.6264,4.6264,4.6268,4.632,4.632,4.625,4.6251,4.6252,4.6253,0,0,0,0,0,0,0,4.6331,4.6333,4.6363,4.633,4.6325,4.6303,4.63,4.6332,4.6292,4.6282,4.6276,4.6275,4.6261,4.6266,4.6267,4.6319,4.625,4.6252,4.6253,4.6254,4.6436,4.6439,0,0,0,0,0,0,4.6337,4.6333,4.6364,4.6363,4.6318,4.6306,4.6303,4.6314,4.6292,4.6285,4.6277,4.6271,4.6263,4.6264,4.6266,4.6357,4.6252,4.6254,4.6256,4.6433,4.6437,4.6441,0,0,0,0,0,0,4.6336,4.634,4.6364,4.6346,4.6347,4.631,4.6324,4.6316,4.632,4.6288,4.6281,4.629,4.6261,4.6263,4.6308,4.6355,4.6255,4.6258,4.6429,4.6434,4.6439,4.6539,0,0,0,0,0,0,4.6335,4.6341,4.637,4.6347,4.6349,4.6407,4.6327,4.6318,4.6324,4.6315,4.6298,4.6292,4.6259,4.6305,4.6311,4.6356,4.6259,4.6424,4.6431,4.6437,4.6531,4.6547,4.656,0,0,0,0,0,4.6334,4.6399,4.6372,4.6376,4.6385,4.641,4.641,4.6371,4.6329,4.6358,4.6337,4.6292,4.6349,4.6311,4.6316,4.6363,4.6421,4.6429,4.6437,4.6525,4.6544,4.656,0,0,0,0,0,0,4.6428,4.6395,4.6365,4.6424,4.6421,4.6394,4.643,4.6392,4.6401,4.6392,4.6342,4.6339,4.6392,4.6382,4.634,4.6438,4.6377,4.6387,4.6443,4.646,4.6475,4.6476,4.6261,0,0,0,0,0,4.6456,4.6479,4.6449,4.6504,4.6504,4.6468,4.6477,4.6447,4.6441,4.6439,4.6422,4.6418,4.6435,4.6447,4.6461,4.653,4.6525,4.6565,4.6579,4.6591,4.66,4.6635,4.6653,4.6466,4.6466,4.6466,0,0,4.6513,4.6498,4.6515,4.6523,4.6516,4.6541,4.6467,4.6496,4.6515,4.6444,4.6485,4.6473,4.6466,4.6523,4.6548,4.6516,4.665,4.6601,4.6611,4.6613,4.6645,4.6663,4.6679,4.6471,4.647,4.6469,0,0,4.663,4.6621,4.6666,4.6661,4.6652,4.6628,4.6639,4.6619,4.6608,4.6649,4.6596,4.6618,4.6648,4.6645,4.6647,4.6765,4.6724,4.6771,4.6846,4.6882,4.6896,4.6909,4.6951,4.6967,4.6779,4.6779,4.678,0,4.6702,4.6738,4.6694,4.6727,4.6732,4.6669,4.6715,4.6712,4.6709,4.6714,4.6679,4.6716,4.6706,4.6762,4.6791,4.6795,4.6807,4.6772,4.6898,4.691,4.6921,4.6961,4.6977,4.6785,4.6784,4.6784,4.6783,0,4.6827,4.6853,4.689,4.6888,4.6897,4.6937,4.69,4.6914,4.6884,4.6863,4.6907,4.6893,4.6903,4.6915,4.6885,4.6967,4.6948,4.6906,4.6844,4.6946,4.6982,4.6997,4.6793,4.6791,4.679,4.6788,0,0,4.7002,4.6976,4.6991,4.6989,4.6975,4.6994,4.7031,4.7041,4.7054,4.7054,4.7084,4.7112,4.7073,4.7076,4.7046,4.7077,4.7171,4.7031,4.703,4.7058,4.726,4.7292,4.731,4.7144,4.7146,4.7149,4.7261,0,4.7114,4.7175,4.7137,4.7204,4.7227,4.7168,4.72,4.7196,4.7178,4.7195,4.7175,4.7196,4.7143,4.7145,4.7173,4.7154,4.7211,4.7145,4.7171,4.7173,4.7175,4.7329,4.7362,4.7469,4.7275,4.7277,4.7279,0,4.7253,4.7259,4.7328,4.731,4.7318,4.7348,4.7354,4.7371,4.7365,4.735,4.7354,4.7316,4.7351,4.729,4.7338,4.7294,4.7303,4.7295,4.7298,4.7299,4.7232,4.7334,4.7502,4.7518,4.7301,4.7299,4.7298,0,4.7374,4.7399,4.7444,4.7444,4.7424,4.7446,4.7439,4.7429,4.7438,4.7444,4.7449,4.7459,4.7464,4.7473,4.7439,4.7398,4.7492,4.7428,4.7481,4.7482,4.7503,4.7502,4.7675,4.7509,4.7509,4.7508,4.7508,0,4.7502,4.7547,4.7498,4.7525,4.7574,4.753,4.758,4.7566,4.7558,4.7583,4.7532,4.7556,4.751,4.7529,4.7503,4.7547,4.755,4.7539,4.7531,4.7543,4.7545,4.7548,4.754,4.7513,4.7512,4.7511,4.751,0,4.7645,4.7614,4.7659,4.7636,4.7632,4.7669,4.7649,4.7674,4.7653,4.7685,4.769,4.7657,4.7677,4.7644,4.766,4.7643,4.7704,4.7685,4.7706,4.7701,4.7755,4.775,4.7936,4.7958,4.7778,4.778,4.7782,0,4.773,4.7763,4.7744,4.7756,4.7752,4.7773,4.7781,4.774,4.7751,4.7747,4.7772,4.7788,4.7799,4.7834,4.7812,4.7824,4.7805,4.7869,4.7807,4.7818,4.7806,4.7805,4.7808,4.7882,4.7884,4.7886,4.7888,0,4.7883,4.7866,4.7879,4.7889,4.79,4.7905,4.7906,4.792,4.7876,4.7891,4.7911,4.7919,4.7936,4.7953,4.796,4.7953,4.7914,4.7908,4.792,4.7933,4.7944,4.7939,4.7741,4.7903,4.7902,4.7901,4.79,4.7899,4.7999,4.8025,4.8016,4.8034,4.8031,4.8033,4.8055,4.8037,4.8053,4.8063,4.8038,4.8065,4.8058,4.8063,4.8061,4.8081,4.8053,4.8071,4.8076,4.8081,4.809,4.7941,4.8082,4.8081,4.8081,4.8081,4.808,0,4.8149,4.814,4.8157,4.816,4.8174,4.8136,4.8136,4.815,4.8174,4.8171,4.8182,4.8205,4.8222,4.8201,4.8214,4.8234,4.8216,4.8239,4.8237,4.8236,4.8114,4.8102,4.8253,4.8253,4.8253,4.8253,4.8253,4.8253,4.8229,4.8272,4.8254,4.8296,4.8287,4.8312,4.8315,4.8317,4.8315,4.8343,4.8356,4.8342,4.8333,4.8344,4.8358,4.8351,4.8358,4.8387,4.8375,4.8261,4.8244,4.8228,4.8216,4.8389,4.8389,4.8494,4.8495,4.8496]}]]